Flag for United Arab Emirates Weather past 2 weeks in Dubai, Dubai, United Arab Emirates

Now
91 °F

Clear.


Feels Like: 105 °F
Forecast: 94 / 104 °F
Wind: 6 mph from East

Location: Dubai International Airport

Current Time: Aug 2, 2014 at 6:57:33 AM

Latest Report: Aug 2, 2014 at 6:00 AM


Visibility: 5 mi

Pressure: 29.45 "Hg

Humidity: 63%

Dew point: 77 °F

Location of DubaiLocation

Historic Weather in Dubai — Graph

°F

Dubai temperature yesterday

Maximum temperature yesterday: 104 °F (at 11:00 AM)
Minimum temperature yesterday: 93 °F (at 5:00 AM)
Average temperature yesterday: 98 °F

Past Weeks' High & Low Weather Summary

 TemperatureHumidityPressure
High115 °F (Jul 26, 1:00 PM)84% (Jul 19, 1:00 AM)29.56 "Hg (Jul 19, 1:00 AM)
Low86 °F (Jul 30, 6:00 AM)11% (Jul 26, 1:00 PM)29.33 "Hg (Jul 18, 5:00 PM)
Average97 °F54%29.44 "Hg
* Reported Jul 18 5:00 AM — Aug 2 5:00 AM, Dubai, Weather by CustomWeather, © 2014

Note: Actual official high and low records may vary slightly from our data, if they occured in-between our weather recording intervals... More about our weather records

Advertising

Dubai weather history for previous 24 hours

 ConditionsComfort  
Time TempWeatherWind HumidityBarometerVisibility
5:00 AM
Aug 2
91 °FPassing clouds.5 mph67%29.42 "HgN/A
4:00 AM93 °FPassing clouds.3 mph63%29.42 "HgN/A
3:00 AM93 °FClear.3 mph63%29.42 "Hg10 mi
2:00 AM93 °FClear.2 mph63%29.42 "Hg10 mi
1:00 AM95 °FPassing clouds.5 mph60%29.45 "HgN/A
12:00 AM95 °FPassing clouds.3 mph53%29.45 "HgN/A
11:00 PM
Aug 1
95 °FPassing clouds.5 mph56%29.45 "HgN/A
10:00 PM95 °FPassing clouds.5 mph56%29.45 "HgN/A
9:00 PM97 °FClear.7 mph47%29.45 "Hg10 mi
8:00 PM99 °FClear.7 mph39%29.42 "Hg10 mi
7:00 PM99 °FSunny.10 mph37%29.42 "Hg10 mi
6:00 PM100 °FPassing clouds.12 mph37%29.39 "HgN/A
5:00 PM102 °FPassing clouds.14 mph29%29.39 "HgN/A
4:00 PM102 °FPassing clouds.14 mph40%29.42 "HgN/A
3:00 PM102 °FPassing clouds.14 mph40%29.42 "HgN/A
2:00 PM104 °FSunny.14 mph33%29.42 "Hg10 mi
1:00 PM104 °FPassing clouds.13 mph48%29.45 "HgN/A
12:00 PM102 °FClear.13 mph48%29.45 "Hg5 mi
11:00 AM104 °FClear.6 mph33%29.47 "Hg5 mi
10:00 AM100 °FClear.6 mph45%29.47 "Hg5 mi
9:00 AM99 °FClear.10 mph42%29.47 "Hg5 mi
8:00 AM95 °FClear.9 mph60%29.47 "Hg5 mi
7:00 AM93 °FClear.6 mph56%29.47 "Hg4 mi
6:00 AM93 °FClear.8 mph63%29.45 "Hg5 mi
Weather by CustomWeather, © 2014

See weather overviewHow to use our weather pages